Location: *
(51.2167°N, 10.0667°E)
Time: 07:03:02
(UTC+00:00)

SKYMED 2 - Pass Details

Date: 12 December 2019
Orbit: 621 x 623 km, 97.9° (Epoch: 27 January)

Event Time Altitude Azimuth Distance (km) Brightness Sun altitude
Exits shadow 17:17:11 35° 46° (NE) 1,017 4.2 -18.4°
Maximum altitude 17:18:38 51° 100° (E) 792 3.7 -18.6°
Drops below altitude 10° 17:22:52 10° 176° (S) 1,990 6.3 -19.2°
Sets 17:25:05 0° 182° (S) 2,891 7.2 -19.6°
